Time,TemperatureF,DewpointF,PressureIn,WindDirection,WindDirectionDegrees,WindSpeedMPH,WindSpeedGustMPH,Humidity,HourlyPrecipIn,Conditions,Clouds,dailyrainin,SoftwareType,DateUTC
2013-04-24 00:03:00,55.0,53.0,29.79,SE,139,2.0,4.0,94,0.03,,,0.32,,2013-04-24 04:03:00,
2013-04-24 00:12:00,55.0,53.0,29.79,SE,139,2.0,4.0,94,0.03,,,0.32,,2013-04-24 04:12:00,
2013-04-24 00:23:00,55.0,53.0,29.79,SSE,167,2.0,4.0,94,0.02,,,0.32,,2013-04-24 04:23:00,
2013-04-24 00:33:00,55.0,53.0,29.77,ESE,110,2.0,5.0,94,0.01,,,0.32,,2013-04-24 04:33:00,
2013-04-24 00:43:00,55.0,53.0,29.77,ESE,110,2.0,5.0,94,0.01,,,0.32,,2013-04-24 04:43:00,
2013-04-24 00:52:00,56.0,54.0,29.78,ESE,119,3.0,6.0,94,0.01,,,0.32,,2013-04-24 04:52:00,
2013-04-24 01:02:00,56.0,54.0,29.77,SSE,162,5.0,8.0,94,0.02,,,0.34,,2013-04-24 05:02:00,
2013-04-24 01:13:00,56.0,54.0,29.77,SSE,162,5.0,8.0,94,0.02,,,0.34,,2013-04-24 05:13:00,
2013-04-24 01:22:00,56.0,53.0,29.76,SE,132,3.0,10.0,91,0.03,,,0.35,,2013-04-24 05:22:00,
2013-04-24 01:32:00,56.0,53.0,29.75,South,174,3.0,7.0,91,0.03,,,0.35,,2013-04-24 05:32:00,
2013-04-24 01:42:00,56.0,53.0,29.75,South,174,3.0,7.0,91,0.03,,,0.35,,2013-04-24 05:42:00,
2013-04-24 01:52:00,56.0,53.0,29.75,SSW,195,1.0,5.0,90,0.08,,,0.40,,2013-04-24 05:52:00,
2013-04-24 02:02:00,56.0,53.0,29.74,South,191,1.0,5.0,91,0.07,,,0.41,,2013-04-24 06:02:00,
2013-04-24 02:12:00,56.0,53.0,29.74,South,191,1.0,5.0,91,0.07,,,0.41,,2013-04-24 06:12:00,
2013-04-24 02:22:00,56.0,54.0,29.74,SSW,200,1.0,5.0,92,0.06,,,0.41,,2013-04-24 06:22:00,
2013-04-24 02:33:00,56.0,53.0,29.73,SSW,207,1.0,5.0,91,0.06,,,0.42,,2013-04-24 06:33:00,
2013-04-24 02:42:00,56.0,53.0,29.73,SSW,207,1.0,5.0,91,0.06,,,0.42,,2013-04-24 06:42:00,
2013-04-24 02:51:00,56.0,53.0,29.73,SSW,204,0.0,4.0,91,0.02,,,0.42,,2013-04-24 06:51:00,
2013-04-24 03:02:00,56.0,53.0,29.72,SSE,150,1.0,5.0,91,0.01,,,0.42,,2013-04-24 07:02:00,
2013-04-24 03:11:00,56.0,53.0,29.72,SSE,150,1.0,5.0,91,0.01,,,0.42,,2013-04-24 07:11:00,
2013-04-24 03:22:00,56.0,53.0,29.72,SE,139,1.0,3.0,91,0.01,,,0.42,,2013-04-24 07:22:00,
2013-04-24 03:32:00,56.0,53.0,29.71,South,187,1.0,6.0,91,0.00,,,0.42,,2013-04-24 07:32:00,
2013-04-24 03:42:00,56.0,53.0,29.71,South,187,1.0,6.0,91,0.00,,,0.42,,2013-04-24 07:42:00,
2013-04-24 03:52:00,56.0,53.0,29.71,SSW,205,1.0,4.0,91,0.00,,,0.42,,2013-04-24 07:52:00,
2013-04-24 04:02:00,56.0,53.0,29.70,SSW,203,2.0,5.0,90,0.00,,,0.42,,2013-04-24 08:02:00,
2013-04-24 04:12:00,56.0,53.0,29.70,SSW,203,2.0,5.0,90,0.00,,,0.42,,2013-04-24 08:12:00,
2013-04-24 04:21:00,56.0,53.0,29.70,SE,141,3.0,6.0,90,0.00,,,0.42,,2013-04-24 08:21:00,
2013-04-24 04:33:00,56.0,53.0,29.71,SW,225,2.0,5.0,90,0.00,,,0.42,,2013-04-24 08:33:00,
2013-04-24 04:42:00,56.0,53.0,29.71,SW,225,2.0,5.0,90,0.00,,,0.42,,2013-04-24 08:42:00,
2013-04-24 04:52:00,50.0,47.0,29.72,NW,317,7.0,11.0,89,0.00,,,0.42,,2013-04-24 08:52:00,
2013-04-24 05:02:00,48.0,45.0,29.72,NW,305,7.0,13.0,91,0.01,,,0.43,,2013-04-24 09:02:00,
2013-04-24 05:11:00,48.0,45.0,29.72,NW,305,7.0,13.0,91,0.01,,,0.43,,2013-04-24 09:11:00,
2013-04-24 05:21:00,47.0,45.0,29.73,NW,319,8.0,13.0,92,0.01,,,0.43,,2013-04-24 09:21:00,
2013-04-24 05:33:00,46.0,44.0,29.73,NW,316,7.0,13.0,92,0.01,,,0.43,,2013-04-24 09:33:00,
2013-04-24 05:42:00,46.0,44.0,29.73,NW,316,7.0,13.0,92,0.01,,,0.43,,2013-04-24 09:42:00,
2013-04-24 05:53:00,45.0,43.0,29.74,NW,314,6.0,11.0,92,0.02,,,0.44,,2013-04-24 09:53:00,
2013-04-24 06:02:00,44.0,42.0,29.76,NW,306,9.0,15.0,91,0.04,,,0.47,,2013-04-24 10:02:00,
2013-04-24 06:12:00,44.0,42.0,29.76,NW,306,9.0,15.0,91,0.04,,,0.47,,2013-04-24 10:12:00,
2013-04-24 06:23:00,44.0,42.0,29.75,NNW,342,5.0,10.0,92,0.08,,,0.51,,2013-04-24 10:23:00,
2013-04-24 06:33:00,43.0,41.0,29.77,NW,323,8.0,14.0,92,0.09,,,0.52,,2013-04-24 10:33:00,
2013-04-24 06:42:00,43.0,41.0,29.77,NW,323,8.0,14.0,92,0.09,,,0.52,,2013-04-24 10:42:00,
2013-04-24 06:52:00,42.0,40.0,29.76,NNW,342,4.0,10.0,92,0.08,,,0.52,,2013-04-24 10:52:00,
2013-04-24 07:03:00,42.0,40.0,29.77,NW,319,6.0,17.0,91,0.06,,,0.54,,2013-04-24 11:03:00,
2013-04-24 07:11:00,42.0,40.0,29.77,NW,319,6.0,17.0,91,0.06,,,0.54,,2013-04-24 11:11:00,
2013-04-24 07:22:00,41.0,39.0,29.77,NNW,342,5.0,10.0,92,0.03,,,0.54,,2013-04-24 11:22:00,
2013-04-24 07:32:00,40.0,38.0,29.78,NNW,328,5.0,12.0,91,0.02,,,0.54,,2013-04-24 11:32:00,
2013-04-24 07:42:00,40.0,38.0,29.78,NNW,328,5.0,12.0,91,0.02,,,0.54,,2013-04-24 11:42:00,
2013-04-24 07:52:00,40.0,38.0,29.80,NW,317,7.0,13.0,91,0.02,,,0.54,,2013-04-24 11:52:00,
2013-04-24 08:02:00,39.0,37.0,29.80,NW,308,7.0,14.0,92,0.02,,,0.56,,2013-04-24 12:02:00,
2013-04-24 08:11:00,39.0,37.0,29.80,NW,308,7.0,14.0,92,0.02,,,0.56,,2013-04-24 12:11:00,
2013-04-24 08:22:00,39.0,37.0,29.81,NNW,328,7.0,13.0,92,0.04,,,0.57,,2013-04-24 12:22:00,
2013-04-24 08:32:00,38.0,36.0,29.81,NNW,333,6.0,11.0,93,0.05,,,0.59,,2013-04-24 12:32:00,
2013-04-24 08:42:00,38.0,36.0,29.81,NNW,333,6.0,11.0,93,0.05,,,0.59,,2013-04-24 12:42:00,
2013-04-24 08:52:00,38.0,36.0,29.80,NW,315,7.0,12.0,93,0.07,,,0.61,,2013-04-24 12:52:00,
2013-04-24 09:01:00,38.0,36.0,29.80,NNW,330,6.0,10.0,93,0.06,,,0.62,,2013-04-24 13:01:00,
2013-04-24 09:12:00,38.0,36.0,29.80,NNW,330,6.0,10.0,93,0.06,,,0.62,,2013-04-24 13:12:00,
2013-04-24 09:22:00,38.0,36.0,29.80,NW,323,5.0,12.0,93,0.04,,,0.62,,2013-04-24 13:22:00,
2013-04-24 09:32:00,38.0,36.0,29.81,NW,312,7.0,12.0,93,0.03,,,0.62,,2013-04-24 13:32:00,
2013-04-24 09:41:00,38.0,36.0,29.81,NW,312,7.0,12.0,93,0.03,,,0.62,,2013-04-24 13:41:00,
2013-04-24 09:52:00,38.0,36.0,29.82,North,350,5.0,12.0,93,0.01,,,0.62,,2013-04-24 13:52:00,
2013-04-24 10:01:00,37.0,35.0,29.82,NW,320,6.0,10.0,92,0.01,,,0.63,,2013-04-24 14:01:00,
2013-04-24 10:11:00,37.0,35.0,29.82,NW,320,6.0,10.0,92,0.01,,,0.63,,2013-04-24 14:11:00,
2013-04-24 10:22:00,37.0,35.0,29.81,NW,317,7.0,11.0,92,0.03,,,0.65,,2013-04-24 14:22:00,
2013-04-24 10:32:00,37.0,35.0,29.80,NW,311,4.0,10.0,92,0.06,,,0.68,,2013-04-24 14:32:00,
2013-04-24 10:42:00,37.0,35.0,29.80,NW,311,4.0,10.0,92,0.06,,,0.68,,2013-04-24 14:42:00,
2013-04-24 10:51:00,37.0,35.0,29.81,NW,321,3.0,10.0,93,0.09,,,0.71,,2013-04-24 14:51:00,
2013-04-24 11:01:00,37.0,35.0,29.83,NW,311,6.0,10.0,92,0.10,,,0.73,,2013-04-24 15:01:00,
2013-04-24 11:11:00,37.0,35.0,29.83,NW,311,6.0,10.0,92,0.10,,,0.73,,2013-04-24 15:11:00,
2013-04-24 11:22:00,36.0,34.0,29.84,NNW,330,6.0,11.0,92,0.09,,,0.74,,2013-04-24 15:22:00,
2013-04-24 11:33:00,36.0,34.0,29.85,NW,323,4.0,9.0,91,0.10,,,0.78,,2013-04-24 15:33:00,
2013-04-24 11:43:00,36.0,34.0,29.85,NW,323,4.0,9.0,91,0.10,,,0.78,,2013-04-24 15:43:00,
2013-04-24 11:53:00,36.0,34.0,29.84,NW,315,4.0,7.0,92,0.09,,,0.80,,2013-04-24 15:53:00,
2013-04-24 12:03:00,35.0,33.0,29.84,NW,314,6.0,10.0,92,0.09,,,0.82,,2013-04-24 16:03:00,
2013-04-24 12:12:00,35.0,33.0,29.84,NW,314,6.0,10.0,92,0.09,,,0.82,,2013-04-24 16:12:00,
2013-04-24 12:23:00,34.0,32.0,29.83,WNW,302,5.0,8.0,92,0.08,,,0.83,,2013-04-24 16:23:00,
2013-04-24 12:32:00,35.0,33.0,29.83,NW,309,4.0,12.0,93,0.06,,,0.84,,2013-04-24 16:32:00,
2013-04-24 12:42:00,35.0,33.0,29.83,NW,309,4.0,12.0,93,0.06,,,0.84,,2013-04-24 16:42:00,
2013-04-24 12:52:00,35.0,33.0,29.83,NW,307,7.0,12.0,93,0.04,,,0.84,,2013-04-24 16:52:00,
2013-04-24 13:02:00,35.0,33.0,29.85,NW,312,5.0,9.0,93,0.02,,,0.84,,2013-04-24 17:02:00,
2013-04-24 13:12:00,35.0,33.0,29.85,NW,312,5.0,9.0,93,0.02,,,0.84,,2013-04-24 17:12:00,
2013-04-24 13:22:00,36.0,34.0,29.86,NW,307,7.0,12.0,92,0.01,,,0.84,,2013-04-24 17:22:00,
2013-04-24 13:32:00,36.0,34.0,29.87,NW,309,7.0,12.0,91,0.01,,,0.85,,2013-04-24 17:32:00,
2013-04-24 13:42:00,36.0,34.0,29.87,NW,309,7.0,12.0,91,0.01,,,0.85,,2013-04-24 17:42:00,
2013-04-24 13:51:00,36.0,34.0,29.88,WNW,298,7.0,11.0,92,0.02,,,0.86,,2013-04-24 17:51:00,
2013-04-24 14:02:00,35.0,33.0,29.88,NW,307,7.0,13.0,92,0.03,,,0.87,,2013-04-24 18:02:00,
2013-04-24 14:12:00,35.0,33.0,29.88,NW,307,7.0,13.0,92,0.03,,,0.87,,2013-04-24 18:12:00,
2013-04-24 14:22:00,35.0,33.0,29.89,WNW,302,7.0,12.0,92,0.03,,,0.87,,2013-04-24 18:22:00,
2013-04-24 14:33:00,36.0,34.0,29.90,WNW,298,7.0,12.0,91,0.03,,,0.88,,2013-04-24 18:33:00,
2013-04-24 14:42:00,36.0,34.0,29.90,WNW,298,7.0,12.0,91,0.03,,,0.88,,2013-04-24 18:42:00,
2013-04-24 14:52:00,36.0,34.0,29.91,WNW,288,8.0,11.0,91,0.03,,,0.89,,2013-04-24 18:52:00,
2013-04-24 15:02:00,36.0,33.0,29.89,NW,304,9.0,13.0,90,0.03,,,0.90,,2013-04-24 19:02:00,
2013-04-24 15:11:00,36.0,33.0,29.89,NW,304,9.0,13.0,90,0.03,,,0.90,,2013-04-24 19:11:00,
2013-04-24 15:22:00,36.0,33.0,29.91,NW,311,8.0,13.0,89,0.03,,,0.90,,2013-04-24 19:22:00,
2013-04-24 15:32:00,37.0,34.0,29.92,WNW,295,7.0,11.0,90,0.02,,,0.90,,2013-04-24 19:32:00,
2013-04-24 15:42:00,37.0,34.0,29.92,WNW,295,7.0,11.0,90,0.02,,,0.90,,2013-04-24 19:42:00,
2013-04-24 15:52:00,37.0,34.0,29.93,WNW,290,6.0,11.0,90,0.02,,,0.91,,2013-04-24 19:52:00,
2013-04-24 16:02:00,37.0,35.0,29.94,WNW,290,8.0,13.0,91,0.01,,,0.91,,2013-04-24 20:02:00,
2013-04-24 16:11:00,37.0,35.0,29.94,WNW,290,8.0,13.0,91,0.01,,,0.91,,2013-04-24 20:11:00,
2013-04-24 16:22:00,38.0,36.0,29.95,WNW,295,7.0,11.0,91,0.02,,,0.92,,2013-04-24 20:22:00,
2013-04-24 16:32:00,37.0,34.0,29.96,SSW,212,9.0,13.0,90,0.02,,,0.92,,2013-04-24 20:32:00,
2013-04-24 16:42:00,37.0,34.0,29.96,SSW,212,9.0,13.0,90,0.02,,,0.92,,2013-04-24 20:42:00,
2013-04-24 16:52:00,38.0,35.0,29.97,WNW,298,7.0,11.0,89,0.01,,,0.92,,2013-04-24 20:52:00,
2013-04-24 17:02:00,38.0,35.0,29.97,WNW,297,6.0,12.0,89,0.02,,,0.93,,2013-04-24 21:02:00,
2013-04-24 17:11:00,38.0,35.0,29.97,WNW,297,6.0,12.0,89,0.02,,,0.93,,2013-04-24 21:11:00,
2013-04-24 17:22:00,39.0,35.0,29.98,West,281,8.0,14.0,86,0.01,,,0.93,,2013-04-24 21:22:00,
2013-04-24 17:33:00,39.0,35.0,29.98,WNW,301,7.0,11.0,86,0.01,,,0.93,,2013-04-24 21:33:00,
2013-04-24 17:42:00,39.0,35.0,29.98,WNW,301,7.0,11.0,86,0.01,,,0.93,,2013-04-24 21:42:00,
2013-04-24 17:52:00,39.0,35.0,29.98,West,260,4.0,10.0,86,0.01,,,0.93,,2013-04-24 21:52:00,
2013-04-24 18:03:00,40.0,36.0,29.99,WNW,290,5.0,12.0,85,0.00,,,0.93,,2013-04-24 22:03:00,
2013-04-24 18:12:00,40.0,36.0,29.99,WNW,290,5.0,12.0,85,0.00,,,0.93,,2013-04-24 22:12:00,
2013-04-24 18:22:00,41.0,36.0,29.99,West,281,4.0,11.0,82,0.00,,,0.93,,2013-04-24 22:22:00,
2013-04-24 18:33:00,41.0,36.0,30.00,West,269,4.0,9.0,82,0.00,,,0.90,,2013-04-24 22:33:00,
2013-04-24 18:42:00,41.0,36.0,30.00,West,269,4.0,9.0,82,0.00,,,0.90,,2013-04-24 22:42:00,
2013-04-24 18:52:00,41.0,36.0,30.01,WNW,283,4.0,10.0,81,0.00,,,0.90,,2013-04-24 22:52:00,
2013-04-24 19:02:00,42.0,34.0,30.02,WSW,252,5.0,10.0,74,0.00,,,0.90,,2013-04-24 23:02:00,
2013-04-24 19:12:00,42.0,34.0,30.02,WSW,252,5.0,10.0,74,0.00,,,0.90,,2013-04-24 23:12:00,
2013-04-24 19:22:00,42.0,33.0,30.03,WSW,256,6.0,11.0,69,0.00,,,0.90,,2013-04-24 23:22:00,
2013-04-24 19:32:00,42.0,33.0,30.04,West,271,5.0,14.0,69,0.00,,,0.72,,2013-04-24 23:32:00,
2013-04-24 19:42:00,42.0,33.0,30.04,West,271,5.0,14.0,69,0.00,,,0.72,,2013-04-24 23:42:00,
2013-04-24 19:52:00,42.0,32.0,30.04,WSW,249,5.0,11.0,68,0.00,,,0.72,,2013-04-24 23:52:00,
2013-04-24 20:02:00,41.0,31.0,30.05,WNW,288,3.0,12.0,68,0.00,,,0.72,,2013-04-25 00:02:00,
2013-04-24 20:12:00,41.0,31.0,30.05,WNW,288,3.0,12.0,68,0.00,,,0.72,,2013-04-25 00:12:00,
2013-04-24 20:22:00,41.0,30.0,30.06,WNW,295,6.0,11.0,65,0.00,,,0.72,,2013-04-25 00:22:00,
2013-04-24 20:32:00,41.0,31.0,30.06,WSW,256,1.0,8.0,67,0.00,,,0.70,,2013-04-25 00:32:00,
2013-04-24 20:42:00,41.0,31.0,30.06,WSW,256,1.0,8.0,67,0.00,,,0.70,,2013-04-25 00:42:00,
2013-04-24 20:52:00,40.0,30.0,30.07,SSW,202,3.0,6.0,68,0.00,,,0.70,,2013-04-25 00:52:00,
2013-04-24 21:02:00,39.0,30.0,30.08,WSW,242,1.0,4.0,70,0.00,,,0.70,,2013-04-25 01:02:00,
2013-04-24 21:11:00,39.0,30.0,30.08,WSW,242,1.0,4.0,70,0.00,,,0.70,,2013-04-25 01:11:00,
2013-04-24 21:23:00,39.0,30.0,30.09,WSW,250,3.0,6.0,70,0.00,,,0.70,,2013-04-25 01:23:00,
2013-04-24 21:32:00,38.0,30.0,30.10,SW,233,1.0,5.0,73,0.00,,,0.67,,2013-04-25 01:32:00,
2013-04-24 21:42:00,38.0,30.0,30.10,SW,233,1.0,5.0,73,0.00,,,0.67,,2013-04-25 01:42:00,
2013-04-24 21:52:00,37.0,29.0,30.11,WSW,246,2.0,7.0,74,0.00,,,0.67,,2013-04-25 01:52:00,
2013-04-24 22:02:00,37.0,29.0,30.12,WSW,249,2.0,8.0,74,0.00,,,0.67,,2013-04-25 02:02:00,
2013-04-24 22:11:00,37.0,29.0,30.12,WSW,249,2.0,8.0,74,0.00,,,0.67,,2013-04-25 02:11:00,
2013-04-24 22:22:00,37.0,29.0,30.13,SSW,197,1.0,4.0,74,0.00,,,0.67,,2013-04-25 02:22:00,
2013-04-24 22:32:00,36.0,28.0,30.14,WSW,245,2.0,5.0,73,0.00,,,0.65,,2013-04-25 02:32:00,
2013-04-24 22:42:00,36.0,28.0,30.14,WSW,245,2.0,5.0,73,0.00,,,0.65,,2013-04-25 02:42:00,
2013-04-24 22:51:00,36.0,28.0,30.14,WSW,245,2.0,5.0,73,0.00,,,0.65,,2013-04-25 02:51:00,
2013-04-24 23:02:00,36.0,29.0,30.14,SSW,194,2.0,6.0,75,0.00,,,0.65,,2013-04-25 03:02:00,
2013-04-24 23:11:00,36.0,29.0,30.14,SSW,194,2.0,6.0,75,0.00,,,0.65,,2013-04-25 03:11:00,
2013-04-24 23:22:00,36.0,29.0,30.15,SSW,208,1.0,5.0,75,0.00,,,0.65,,2013-04-25 03:22:00,
2013-04-24 23:33:00,35.0,28.0,30.16,SSW,207,2.0,6.0,76,0.00,,,0.62,,2013-04-25 03:33:00,
2013-04-24 23:43:00,35.0,28.0,30.16,SSW,207,2.0,6.0,76,0.00,,,0.62,,2013-04-25 03:43:00,
2013-04-24 23:52:00,35.0,28.0,30.16,SW,219,1.0,5.0,76,0.00,,,0.62,,2013-04-25 03:52:00,